Voltar ao catálogo

QIANFAN-203

AtivoComunicaçõesPO
NORAD 69802·PAYLOAD·🇨🇳 China

Lançado Jul 4, 2026 de Taiyuan Satellite Launch Center

Loading…

Próximas Passagens (próximas 24 horas)

TLE

AtualizadoSource: Space-Track

Época: Sep 14, 2026, 13:06 UTC

1 69802U 26153C   26257.54607296  .00000105  00000-0  53799-4 0  9996
2 69802  88.9981 352.1259 0006151   7.7463 352.3814 14.07835611 10213

Acompanhe QIANFAN-203 em tempo real com AllMySat

Download on the App Store